Orange, MA

2:22 AM EST on December 17, 2017 (GMT -0500)
Orange Municipal

Weather History for KORE - March, 2012

Change the Weather History Date:

Friday, March 30, 2012

  Actual Average Record
Temperature  
Mean Temperature 38 °F -  
Max Temperature 50 °F 45 °F 79 °F (1998)
Min Temperature 28 °F 26 °F 12 °F (2008)
Degree Days  
Heating Degree Days 27    
Moisture  
Dew Point 18 °F    
Average Humidity 47    
Maximum Humidity 85    
Minimum Humidity 18    
Precipitation  
Precipitation 0.00 in - - ()
Sea Level Pressure  
Sea Level Pressure 30.00 in    
Wind  
Wind Speed 6 mph (NNW)    
Max Wind Speed 16 mph    
Max Gust Speed 26 mph    
Visibility 10 miles    
Events      
Averages and records for this station are not official NWS values.
T = Trace of Precipitation, MM = Missing Value Source: NWS Daily Summary

Daily Weather History Graph

Daily Weather History Graph

Search for Another Location

Airport or City:

Trip Planner

Search our weather history database for the weather conditions in past years. The results will help you decide how hot, cold, wet, or windy it might be!

Date:

Astronomy

Mar. 30, 2012 Rise Set
Actual Time 6:34 AM EDT 7:13 PM EDT
Civil Twilight 6:05 AM EDT 7:41 PM EDT
Nautical Twilight 5:32 AM EDT 8:15 PM EDT
Astronomical Twilight 4:57 AM EDT 8:50 PM EDT
Moon 11:31 AM EDT (3/30) 1:53 AM EDT (3/30)
Length of Visible Light 13h 36m
Length of Day
12h 39m
Waxing Crescent, 49% of the Moon is Illuminated
Mar 30
Waxing Crescent
Mar 30
First Quarter
Apr 6
Full
Apr 13
Last Quarter
Apr 21
New

Hourly Weather History & Observations

Time (EDT) Temp. Windchill Dew Point Humidity Pressure Visibility Wind Dir Wind Speed Gust Speed Precip Events Conditions
12:52 AM 37.0 °F 30.4 °F 26.1 °F 65% 29.95 in 10.0 mi NNW 9.2 mph - N/A   Overcast
1:52 AM 37.0 °F - 26.1 °F 65% 29.95 in 10.0 mi Calm Calm - N/A   Overcast
2:52 AM 36.0 °F 29.0 °F 27.0 °F 70% 29.96 in 9.0 mi NNW 9.2 mph - 0.00 in   Overcast
3:52 AM 35.1 °F 32.2 °F 27.0 °F 72% 29.96 in 10.0 mi NW 3.5 mph - N/A   Overcast
4:52 AM 34.0 °F - 28.0 °F 79% 29.97 in 10.0 mi Calm Calm - N/A   Overcast
5:52 AM 30.0 °F - 26.1 °F 85% 29.98 in 10.0 mi Calm Calm - N/A   Clear
6:52 AM 28.9 °F - 25.0 °F 85% 29.99 in 10.0 mi Calm Calm - N/A   Scattered Clouds
7:52 AM 35.1 °F 29.3 °F 21.9 °F 59% 30.01 in 10.0 mi NW 6.9 mph - N/A   Mostly Cloudy
8:52 AM 36.0 °F 27.1 °F 19.0 °F 50% 30.03 in 10.0 mi NW 13.8 mph 21.9 mph N/A   Partly Cloudy
9:52 AM 37.0 °F 29.3 °F 18.0 °F 46% 30.04 in 10.0 mi NNW 11.5 mph 16.1 mph N/A   Partly Cloudy
10:52 AM 39.9 °F 31.4 °F 10.9 °F 31% 30.05 in 10.0 mi NW 16.1 mph 26.5 mph N/A   Clear
11:28 AM 41.0 °F 33.1 °F 10.4 °F 29% 30.03 in 10.0 mi North 15.0 mph 26.5 mph N/A   Clear
11:52 AM 42.1 °F 34.5 °F 10.9 °F 28% 30.04 in 10.0 mi NNW 15.0 mph 24.2 mph N/A   Clear
12:52 PM 44.1 °F 37.1 °F 10.9 °F 26% 30.02 in 10.0 mi North 15.0 mph 19.6 mph N/A   Clear
2:52 PM 48.0 °F - 8.1 °F 20% 29.98 in 10.0 mi NNE 9.2 mph 16.1 mph N/A   Clear
3:52 PM 48.0 °F - 9.0 °F 21% 29.97 in 10.0 mi Calm Calm - N/A   Clear
4:52 PM 48.9 °F - 7.0 °F 18% 29.98 in 10.0 mi NW 9.2 mph - N/A   Clear
5:52 PM 48.0 °F - 7.0 °F 19% 29.98 in 10.0 mi NW 9.2 mph - N/A   Clear
6:52 PM 45.0 °F 41.8 °F 10.9 °F 25% 29.99 in 10.0 mi North 5.8 mph - N/A   Clear
7:52 PM 41.0 °F 39.0 °F 19.0 °F 41% 30.01 in 10.0 mi NNE 3.5 mph - N/A   Partly Cloudy
8:52 PM 41.0 °F - 18.0 °F 40% 30.02 in 10.0 mi Calm Calm - N/A   Overcast
9:52 PM 39.9 °F - 19.9 °F 45% 30.02 in 10.0 mi Calm Calm - N/A   Mostly Cloudy
10:52 PM 39.0 °F - 21.0 °F 49% 30.02 in 10.0 mi Calm Calm - N/A   Mostly Cloudy
11:52 PM 37.9 °F - 21.9 °F 53% 30.03 in 10.0 mi Calm Calm - N/A   Overcast